Total_Precipitation_Accumulation
0.04 0.04 0.04 0.03 0.04 0.03 0.03 0.03 0.03 0.03 0.04 0.05 0.07 0.07 0.07 0.08 0.12 0.17 0.10 0.09 0.21 0.24 0.13 0.05 0.04 0.02 0.01 0.02 0.06 0.03 0.11 0.17 0.17 0.19 0.10 0.04 0.00 0.00 0.00 0.00 0.00 0.00 0.01 0.03 0.05 0.15 0.07 0.00 0.00 0.00 0.00 0.00 0.00 0.00
0.02 0.03 0.03 0.04 0.04 0.04 0.04 0.04 0.03 0.03 0.03 0.05 0.08 0.08 0.09 0.12 0.15 0.18 0.13 0.13 0.15 0.33 0.28 0.07 0.03 0.02 0.01 0.01 0.04 0.06 0.04 0.00 0.00 0.04 0.06 0.02 0.02 0.00 0.00 0.00 0.00 0.00 0.00 0.00 0.00 0.01 0.00 0.00 0.00 0.00 0.00 0.00 0.00 0.00
0.01 0.02 0.02 0.03 0.03 0.05 0.06 0.06 0.05 0.06 0.07 0.12 0.18 0.14 0.16 0.14 0.15 0.23 0.16 0.12 0.14 0.28 0.29 0.18 0.08 0.02 0.01 0.02 0.03 0.09 0.08 0.00 0.00 0.01 0.02 0.03 0.04 0.00 0.00 0.00 0.00 0.00 0.00 0.00 0.00 0.00 0.00 0.00 0.00 0.00 0.00 0.00 0.00 0.00
0.03 0.04 0.05 0.05 0.05 0.06 0.07 0.08 0.10 0.09 0.09 0.12 0.23 0.29 0.22 0.23 0.17 0.19 0.22 0.18 0.15 0.23 0.26 0.15 0.01 0.00 0.00 0.01 0.03 0.05 0.02 0.01 0.02 0.01 0.06 0.07 0.05 0.00 0.00 0.00 0.00 0.00 0.00 0.00 0.00 0.00 0.00 0.00 0.00 0.00 0.00 0.00 0.00 0.00
0.13 0.13 0.10 0.08 0.07 0.06 0.08 0.12 0.14 0.14 0.13 0.21 0.34 0.35 0.30 0.20 0.15 0.12 0.17 0.16 0.13 0.19 0.24 0.08 0.02 0.00 0.00 0.00 0.02 0.03 0.02 0.02 0.04 0.09 0.10 0.06 0.01 0.00 0.00 0.00 0.00 0.00 0.01 0.00 0.00 0.00 0.00 0.00 0.00 0.00 0.00 0.00 0.00 0.00
0.57 0.41 0.24 0.18 0.18 0.12 0.11 0.14 0.13 0.20 0.18 0.20 0.31 0.37 0.26 0.16 0.10 0.08 0.24 0.20 0.11 0.14 0.22 0.19 0.06 0.01 0.00 0.00 0.00 0.02 0.02 0.03 0.03 0.04 0.06 0.04 0.00 0.00 0.03 0.01 0.00 0.00 0.00 0.00 0.00 0.00 0.00 0.00 0.00 0.00 0.00 0.00 0.00 0.00
0.77 0.99 0.63 0.29 0.20 0.15 0.11 0.15 0.15 0.20 0.27 0.20 0.24 0.25 0.25 0.25 0.19 0.20 0.15 0.07 0.06 0.07 0.18 0.27 0.11 0.04 0.03 0.02 0.02 0.01 0.00 0.00 0.02 0.02 0.02 0.01 0.00 0.01 0.04 0.01 0.00 0.00 0.00 0.00 0.00 0.00 0.00 0.00 0.00 0.00 0.00 0.00 0.00 0.00
0.91 1.11 1.25 0.52 0.32 0.21 0.16 0.22 0.21 0.22 0.29 0.27 0.15 0.10 0.15 0.18 0.28 0.28 0.14 0.06 0.03 0.09 0.10 0.10 0.05 0.01 0.01 0.02 0.02 0.01 0.01 0.01 0.02 0.01 0.00 0.00 0.00 0.00 0.01 0.00 0.00 0.00 0.00 0.00 0.00 0.00 0.00 0.00 0.00 0.00 0.00 0.00 0.00 0.00
0.82 0.88 0.93 0.72 0.61 0.35 0.25 0.30 0.24 0.15 0.16 0.21 0.17 0.09 0.13 0.23 0.26 0.32 0.16 0.09 0.04 0.04 0.07 0.03 0.01 0.01 0.00 0.02 0.03 0.02 0.01 0.01 0.01 0.00 0.00 0.00 0.00 0.00 0.00 0.00 0.00 0.00 0.00 0.00 0.00 0.00 0.00 0.00 0.00 0.00 0.00 0.00 0.00 0.00
0.58 0.37 0.33 0.41 0.42 0.32 0.21 0.27 0.29 0.15 0.09 0.07 0.11 0.15 0.16 0.22 0.11 0.05 0.04 0.03 0.02 0.01 0.01 0.01 0.00 0.01 0.01 0.01 0.03 0.01 0.00 0.00 0.00 0.00 0.01 0.01 0.00 0.00 0.00 0.00 0.00 0.00 0.00 0.00 0.00 0.00 0.00 0.00 0.00 0.00 0.00 0.00 0.00 0.00
0.16 0.05 0.04 0.03 0.03 0.03 0.04 0.09 0.12 0.06 0.02 0.03 0.02 0.06 0.05 0.02 0.01 0.01 0.01 0.00 0.00 0.00 0.00 0.00 0.00 0.00 0.00 0.00 0.00 0.00 0.00 0.00 0.00 0.00 0.01 0.00 0.00 0.00 0.00 0.00 0.00 0.00 0.00 0.00 0.00 0.00 0.00 0.00 0.00 0.00 0.00 0.00 0.00 0.00
0.06 0.04 0.03 0.02 0.01 0.01 0.00 0.00 0.00 0.00 0.00 0.00 0.00 0.00 0.00 0.00 0.00 0.00 0.00 0.00 0.00 0.00 0.00 0.00 0.00 0.00 0.00 0.00 0.00 0.00 0.00 0.00 0.00 0.00 0.02 0.00 0.00 0.00 0.00 0.00 0.00 0.00 0.00 0.00 0.00 0.00 0.00 0.00 0.00 0.00 0.00 0.00 0.00 0.00
0.06 0.03 0.02 0.01 0.02 0.01 0.00 0.00 0.00 0.00 0.00 0.00 0.00 0.00 0.00 0.00 0.00 0.00 0.00 0.00 0.00 0.00 0.00 0.00 0.00 0.00 0.00 0.00 0.00 0.00 0.00 0.00 0.00 0.01 0.01 0.00 0.00 0.00 0.00 0.00 0.00 0.00 0.00 0.00 0.00 0.00 0.00 0.00 0.00 0.00 0.00 0.00 0.00 0.00
0.07 0.05 0.05 0.04 0.01 0.00 0.00 0.00 0.00 0.00 0.00 0.00 0.00 0.00 0.00 0.00 0.00 0.00 0.00 0.00 0.00 0.00 0.00 0.00 0.00 0.00 0.00 0.00 0.00 0.00 0.00 0.00 0.01 0.00 0.00 0.00 0.00 0.00 0.00 0.00 0.00 0.00 0.00 0.00 0.00 0.00 0.00 0.00 0.00 0.00 0.00 0.02 0.03 0.02
0.11 0.08 0.03 0.01 0.00 0.00 0.00 0.00 0.00 0.00 0.00 0.00 0.00 0.00 0.00 0.00 0.01 0.00 0.00 0.00 0.00 0.00 0.00 0.00 0.00 0.00 0.00 0.00 0.00 0.00 0.00 0.00 0.00 0.00 0.00 0.00 0.00 0.00 0.00 0.00 0.00 0.00 0.00 0.00 0.00 0.00 0.00 0.00 0.00 0.00 0.00 0.03 0.06 0.06
0.06 0.05 0.02 0.00 0.00 0.00 0.00 0.00 0.00 0.00 0.00 0.00 0.00 0.00 0.00 0.00 0.01 0.01 0.01 0.00 0.00 0.00 0.00 0.00 0.00 0.00 0.00 0.00 0.00 0.00 0.00 0.00 0.00 0.00 0.00 0.00 0.00 0.00 0.00 0.00 0.00 0.00 0.00 0.00 0.00 0.00 0.00 0.00 0.01 0.01 0.01 0.03 0.06 0.06
0.00 0.02 0.01 0.00 0.00 0.00 0.00 0.00 0.00 0.00 0.00 0.00 0.01 0.01 0.01 0.00 0.01 0.01 0.00 0.00 0.00 0.00 0.00 0.00 0.00 0.00 0.00 0.00 0.00 0.00 0.00 0.00 0.00 0.00 0.00 0.00 0.00 0.00 0.00 0.00 0.00 0.00 0.00 0.00 0.00 0.00 0.00 0.00 0.02 0.03 0.04 0.02 0.06 0.07
0.00 0.00 0.00 0.00 0.00 0.00 0.00 0.00 0.00 0.00 0.01 0.01 0.01 0.01 0.01 0.01 0.00 0.01 0.01 0.01 0.00 0.00 0.00 0.00 0.00 0.00 0.00 0.00 0.00 0.00 0.00 0.00 0.00 0.00 0.00 0.00 0.00 0.00 0.00 0.00 0.00 0.00 0.00 0.00 0.00 0.00 0.01 0.02 0.04 0.04 0.05 0.06 0.08 0.09
0.00 0.00 0.00 0.00 0.00 0.00 0.00 0.00 0.00 0.00 0.02 0.01 0.01 0.01 0.01 0.01 0.01 0.01 0.01 0.01 0.01 0.00 0.00 0.00 0.00 0.00 0.00 0.00 0.00 0.00 0.00 0.00 0.01 0.00 0.00 0.00 0.00 0.00 0.00 0.00 0.00 0.00 0.00 0.00 0.00 0.01 0.02 0.04 0.07 0.07 0.07 0.10 0.12 0.09
0.00 0.00 0.00 0.00 0.00 0.00 0.00 0.00 0.00 0.00 0.01 0.01 0.01 0.01 0.01 0.01 0.01 0.01 0.00 0.01 0.01 0.01 0.01 0.01 0.00 0.01 0.00 0.01 0.01 0.01 0.00 0.00 0.01 0.02 0.00 0.00 0.00 0.00 0.00 0.00 0.00 0.00 0.00 0.00 0.00 0.01 0.05 0.05 0.05 0.08 0.10 0.14 0.15 0.10
0.00 0.00 0.00 0.00 0.00 0.00 0.00 0.00 0.00 0.01 0.01 0.00 0.00 0.01 0.01 0.00 0.00 0.00 0.00 0.00 0.00 0.00 0.00 0.00 0.00 0.00 0.00 0.00 0.00 0.00 0.00 0.01 0.02 0.03 0.02 0.02 0.00 0.00 0.01 0.00 0.00 0.00 0.01 0.01 0.02 0.02 0.06 0.07 0.07 0.10 0.11 0.12 0.10 0.08
0.00 0.00 0.00 0.00 0.00 0.00 0.00 0.01 0.00 0.00 0.00 0.00 0.00 0.00 0.00 0.00 0.00 0.00 0.00 0.00 0.00 0.00 0.00 0.00 0.00 0.00 0.00 0.00 0.00 0.00 0.01 0.02 0.02 0.02 0.01 0.03 0.03 0.01 0.01 0.00 0.01 0.01 0.01 0.01 0.04 0.05 0.05 0.05 0.07 0.10 0.11 0.08 0.08 0.08
0.00 0.00 0.00 0.00 0.00 0.00 0.00 0.00 0.00 0.00 0.00 0.00 0.00 0.00 0.00 0.00 0.00 0.00 0.00 0.00 0.00 0.00 0.00 0.00 0.00 0.00 0.02 0.00 0.00 0.00 0.02 0.04 0.02 0.01 0.02 0.02 0.01 0.01 0.01 0.00 0.00 0.03 0.02 0.01 0.06 0.06 0.05 0.06 0.09 0.08 0.07 0.06 0.06 0.08
0.00 0.00 0.00 0.00 0.00 0.00 0.00 0.00 0.00 0.00 0.00 0.00 0.00 0.00 0.00 0.00 0.00 0.00 0.00 0.00 0.01 0.01 0.01 0.01 0.02 0.03 0.00 0.00 0.02 0.02 0.02 0.03 0.03 0.01 0.03 0.04 0.01 0.00 0.01 0.01 0.01 0.02 0.06 0.06 0.06 0.05 0.06 0.07 0.07 0.07 0.06 0.06 0.10 0.12
0.00 0.00 0.00 0.00 0.00 0.00 0.00 0.00 0.00 0.00 0.00 0.00 0.00 0.00 0.00 0.00 0.00 0.00 0.00 0.01 0.01 0.01 0.00 0.01 0.02 0.07 0.08 0.03 0.00 0.01 0.03 0.08 0.06 0.03 0.01 0.04 0.03 0.02 0.00 0.01 0.02 0.04 0.07 0.08 0.06 0.06 0.06 0.06 0.06 0.05 0.07 0.10 0.12 0.13
0.00 0.01 0.01 0.00 0.00 0.00 0.00 0.00 0.00 0.00 0.00 0.00 0.00 0.00 0.00 0.00 0.00 0.01 0.01 0.02 0.01 0.02 0.03 0.04 0.05 0.04 0.04 0.07 0.08 0.04 0.03 0.07 0.10 0.06 0.01 0.03 0.05 0.06 0.05 0.05 0.04 0.04 0.05 0.06 0.06 0.07 0.07 0.07 0.06 0.07 0.14 0.20 0.17 0.15
0.00 0.00 0.00 0.00 0.00 0.00 0.00 0.00 0.00 0.00 0.00 0.00 0.00 0.00 0.00 0.00 0.01 0.02 0.03 0.03 0.03 0.04 0.06 0.07 0.08 0.08 0.07 0.04 0.05 0.06 0.08 0.11 0.15 0.09 0.05 0.06 0.06 0.08 0.10 0.10 0.08 0.06 0.07 0.07 0.07 0.07 0.07 0.07 0.06 0.06 0.10 0.16 0.20 0.19
0.00 0.00 0.00 0.00 0.00 0.00 0.00 0.00 0.00 0.00 0.00 0.00 0.00 0.00 0.00 0.01 0.03 0.04 0.04 0.04 0.06 0.05 0.05 0.06 0.08 0.10 0.10 0.08 0.09 0.09 0.09 0.09 0.08 0.07 0.06 0.05 0.07 0.09 0.10 0.12 0.11 0.09 0.10 0.10 0.07 0.06 0.06 0.05 0.06 0.07 0.07 0.11 0.23 0.24
0.00 0.00 0.00 0.00 0.00 0.00 0.00 0.00 0.00 0.00 0.01 0.01 0.01 0.00 0.01 0.03 0.04 0.04 0.04 0.04 0.05 0.05 0.04 0.03 0.02 0.05 0.07 0.08 0.09 0.11 0.13 0.11 0.07 0.06 0.07 0.08 0.08 0.09 0.12 0.11 0.11 0.10 0.09 0.12 0.14 0.12 0.11 0.09 0.08 0.08 0.07 0.08 0.16 0.20
0.00 0.00 0.00 0.00 0.00 0.00 0.00 0.01 0.01 0.01 0.00 0.01 0.01 0.01 0.01 0.03 0.05 0.05 0.04 0.04 0.04 0.05 0.06 0.07 0.08 0.08 0.09 0.10 0.09 0.07 0.13 0.16 0.14 0.14 0.13 0.11 0.13 0.19 0.18 0.16 0.16 0.18 0.12 0.07 0.15 0.22 0.15 0.15 0.15 0.08 0.04 0.04 0.05 0.07
0.00 0.00 0.00 0.00 0.00 0.00 0.00 0.00 0.00 0.00 0.00 0.00 0.00 0.01 0.01 0.02 0.03 0.05 0.04 0.05 0.06 0.06 0.05 0.05 0.06 0.08 0.10 0.09 0.11 0.09 0.11 0.16 0.18 0.18 0.18 0.15 0.15 0.16 0.19 0.21 0.21 0.18 0.13 0.06 0.03 0.05 0.06 0.04 0.04 0.04 0.02 0.04 0.03 0.03
0.00 0.00 0.00 0.00 0.00 0.00 0.00 0.00 0.00 0.00 0.00 0.00 0.00 0.00 0.00 0.01 0.03 0.03 0.03 0.03 0.03 0.04 0.06 0.07 0.07 0.07 0.11 0.13 0.16 0.21 0.28 0.23 0.20 0.16 0.16 0.16 0.13 0.13 0.14 0.15 0.16 0.14 0.10 0.06 0.04 0.06 0.03 0.01 0.01 0.01 0.01 0.01 0.01 0.01
0.00 0.00 0.00 0.00 0.00 0.00 0.00 0.00 0.00 0.00 0.00 0.00 0.00 0.00 0.00 0.01 0.01 0.01 0.02 0.05 0.08 0.08 0.08 0.08 0.09 0.11 0.13 0.16 0.18 0.18 0.17 0.17 0.20 0.15 0.13 0.12 0.11 0.09 0.06 0.05 0.05 0.04 0.02 0.02 0.03 0.03 0.02 0.00 0.00 0.00 0.00 0.00 0.01 0.01